Regional Weather Roundup
Issued by NWS

Home | Current Version | Previous Version | Graphics & Text | Print | Product List | Glossary On
Versions: 1 2 3 4 5 6 7 8 9 10 11 12 13 14 15 16 17 18 19 20 21 22 23 24 25 26 27 28 29 30 31 32 33 34 35 36 37 38 39 40 41 42 43 44 45 46 47 48 49 50
000
ASUS43 KMPX 011410
RWRMN
WEATHER ROUNDUP FOR MINNESOTA
NATIONAL WEATHER SERVICE TWIN CITIES/CHANHASSEN MN
800 AM CST SUN FEB 01 2015


NOTE: "FAIR" INDICATES FEW OR NO CLOUDS BELOW 12,000 FEET WITH NO
SIGNIFICANT WEATHER AND/OR OBSTRUCTIONS TO VISIBILITY. N/A MEANS
CURRENT SKY AND/OR WEATHER CONDITIONS ARE NOT AVAILABLE.

MNZ060>063-068>070-011500-
   Twin Cities Metro

CITY           SKY/WX    TMP DP  RH WIND       PRES   REMARKS
TWIN CITIES    LGT SNOW  13   6  74 NE16      30.23R WCI  -3
ST PAUL        LGT SNOW  14   5  67 NE13      30.26R WCI   0
CRYSTAL        CLOUDY    15   4  61 NE16G24   30.23R WCI  -1
BLAINE         CLOUDY    16   3  57 NE15G22   30.24R WCI   1
LAKEVILLE      LGT SNOW  10   9  92 NE14G24   30.20R WCI  -5
EDEN PRAIRIE   LGT SNOW  14   6  70 NE15G24   30.21R WCI  -1
SOUTH ST PAUL  CLOUDY    14   5  68 NE9G20    30.24R WCI   2
LAKE ELMO      CLOUDY    14   3  62 NE16G24   30.24R WCI  -2
$$
MNZ001>005-007-008-013>017-022>024-027-028-011500-
   Northwest Minnesota

CITY           SKY/WX    TMP DP  RH WIND       PRES   REMARKS
BEMIDJI        MOCLDY   -14 -19  79 N3        30.42R
HALLOCK        CLOUDY   -15 -22  70 N5        30.58S WCI -27
ROSEAU         MOCLDY   -17 -24  70 N3        30.54R
WARROAD        MOCLDY   -20 -27  69 NW3       30.52S
THIEF RVR FALL PTCLDY   -15 -17  91 N10       30.50S WCI -35
CROOKSTON      PTCLDY   -11 -18  70 N9        30.55S WCI -29
FOSSTON        PTCLDY   -15 -20  76 N10       30.46R WCI -35
DETROIT LAKES  PTCLDY    -4 -15  59 NE12      30.39R WCI -22
MOORHEAD       PTCLDY    -6 -11  77 N20       30.48R WCI -29
PARK RAPIDS    FAIR      -7 -16  65 N9G17     30.35S WCI -24
MAHNOMEN       FAIR      -9 -16  73 NE13      30.43R WCI -30
$$
MNZ006-009>011-018-025>026-011500-
   North Central Minnesota

CITY           SKY/WX    TMP DP  RH WIND       PRES   REMARKS
BAUDETTE       MOCLDY   -17 -22  78 NW7       30.49S WCI -33
FLAG ISLAND    MOCLDY   -22 -27  76 NW6       30.51S WCI -38
INTL FALLS     MOCLDY   -18 -24  74 N5        30.47R HAZE    WCI -31
WASKISH        MOCLDY   -18 -24  76 CALM      30.47S
BIG FORK       MOCLDY   -15 -20  76 N3        30.42S
LONGVILLE      CLOUDY    -8 -15  71 N6        30.37S WCI -21
GRAND RAPIDS   CLOUDY    -8 -17  65 N9        30.35R WCI -25
CRANE LAKE     PTCLDY   -29 -36  68 CALM      30.49S
ORR            MOCLDY   -22 -29  69 CALM      30.39S
COOK           MOCLDY   -18 -24  76 CALM      30.41S
WALKER         FAIR     -11 -17  75 N5        30.40S WCI -23
$$
MNZ012-019>021-037-011500-
   Northeast Minnesota

CITY           SKY/WX    TMP DP  RH WIND       PRES   REMARKS
DULUTH         PTCLDY    -3 -10  72 N9        30.31R WCI -19
ELY            PTCLDY   -18 -24  76 CALM      30.39S
HIBBING        PTCLDY   -11 -19  68 N8        30.37S WCI -28
EVELETH        PTCLDY    -9 -17  70 NE8       30.38R WCI -26
DULUTH HARBOR    N/A    N/A N/A N/A N24       30.38R
TWO HARBORS    PTCLDY     1  -8  66 N8        30.34S WCI -12
SILVER BAY     MOCLDY    -6 -17  59 CALM      30.36S
GRAND MARAIS     N/A     -5 -19  51 VRB6      30.46R WCI -18
G MARAIS ARPRT PTCLDY   -17 -24  70 N9        30.30S WCI -36
$$
MNZ029>031-032-039>041-046>048-054>057-064-011500-
   West Central Minnesota

CITY           SKY/WX    TMP DP  RH WIND       PRES   REMARKS
FERGUS FALLS   PTCLDY     0 -15  50 NE9G17    30.42R WCI -16
WHEATON        MOCLDY    -2  -9  71 NW21      30.41R WCI -25
MORRIS         PTCLDY     3  -4  72 N15       30.32R WCI -15
ALEXANDRIA     PTCLDY     1  -7  68 N16       30.30R WCI -19
ELBOW LAKE     CLOUDY     0  -8  69 N10G16    30.34R WCI -16
WADENA         MOCLDY    -4 -11  71 NE13      30.33R WCI -23
GLENWOOD       MOCLDY     1  -4  78 N16       30.29R WCI -18
APPLETON       PTCLDY     9  -2  61 N21       30.32R WCI -11
BENSON         PTCLDY     7  -2  66 NE13G22   30.30R WCI  -9
ORTONVILLE     PTCLDY     1  -6  71 N22       30.34R WCI -21
MADISON        PTCLDY    10   1  67 N21       30.32R WCI  -9
WILLMAR        FAIR       9   0  66 NE20G26   30.27R WCI -11
$$
MNZ033>034-036-042>043-049>051-058-059-011500-
   Central Minnesota

CITY           SKY/WX    TMP DP  RH WIND       PRES   REMARKS
ST CLOUD       MOCLDY     5  -3  69 N12       30.29R WCI -11
SAUK CENTRE    FAIR       3  -5  70 N15       30.30R WCI -16
PAYNESVILLE    MOCLDY     3  -4  73 N18G24    30.27R WCI -17
AITKIN         MOCLDY     0  -9  65 N6        30.33R WCI -12
PINE RIVER     CLOUDY    -4 -11  71 N12       30.38R WCI -22
BRAINERD       MOCLDY    -1  -9  68 N10       30.35R WCI -17
STAPLES        MOCLDY    -2  -9  71 N10       30.33S WCI -19
LONG PRAIRIE   CLOUDY     1  -6  71 N13       30.30R WCI -16
LITTLE FALLS   MOCLDY     3  -6  66 N5        30.33R WCI  -6
LITCHFIELD     CLOUDY    10   3  72 NE17G25   30.25R WCI  -7
BUFFALO        CLOUDY    10   4  74 N14G23    30.26R WCI  -5
MAPLE LAKE     CLOUDY    11   5  77 N12       30.27R WCI  -3
$$
MNZ037-044-045-052-053-011500-
   East Central Minnesota

CITY           SKY/WX    TMP DP  RH WIND       PRES   REMARKS
PRINCETON      MOCLDY     9   1  72 N12G21    30.28R WCI  -6
MORA           MOCLDY     7   0  72 N7        30.31R WCI  -5
CAMBRIDGE      CLOUDY    10   1  67 N9        30.27R WCI  -2
RUSH CITY      CLOUDY    11   3  70 NE13G20   30.29R WCI  -4
MOOSE LAKE     FAIR       1  -6  71 N8        30.31S WCI -12
HINCKLEY         N/A      5   0  78 N8        30.31R WCI  -8
CLOQUET        PTCLDY    -2  -9  71 N9        30.31S WCI -18
MCGREGOR       MOCLDY     0  -8  71 N7        30.34S WCI -13
$$
MNZ071>073-080-081-089-090-097-098-011500-
   Southwest Minnesota

CITY           SKY/WX    TMP DP  RH WIND       PRES   REMARKS
MONTEVIDEO     CLOUDY     9   1  72 NE21      30.29R WCI -11
GRANITE FALLS  CLOUDY    10   2  71 N17G23    30.27R WCI  -8
CANBY          CLOUDY     6   0  75 N18G25    30.29R WCI -14
MARSHALL       MOCLDY     9   0  66 N22G29    30.24R WCI -11
REDWOOD FALLS  LGT SNOW  11   6  81 N13G22    30.23R WCI  -4
OLIVIA         CLOUDY    10   5  79 N22       30.23R WCI  -9
PIPESTONE      LGT SNOW   7   3  85 N17G26    30.14S VSB 3/4 WCI -12
WINDOM         LGT SNOW  12  10  92 N26       30.11R WCI  -8
WORTHINGTON    CLOUDY    30   5  34 N21G30    30.10R VSB 1/2 WCI  17
JACKSON        LGT SNOW  16  12  86 N26G33    30.08R WCI  -3
TRACY          LGT SNOW  11   8  87 N23       30.20R VSB 1   WCI  -9
SLAYTON        LGT SNOW   9   6  87 N22       30.13R WCI -11
$$
MNZ065>067-074>077-082>085-091>093-011500-
   South Central Minnesota

CITY           SKY/WX    TMP DP  RH WIND       PRES   REMARKS
MANKATO        CLOUDY    14   9  79 NE22      30.14R WCI  -4
NEW ULM        LGT SNOW  12   9  85 NE20G25   30.17R VSB 1   WCI  -6
ST JAMES       LGT SNOW  16  12  86 N20G25    30.14R VSB 1   WCI  -1
FAIRMONT       CLOUDY    16  10  79 N18G28    30.07R VSB 3/4 WCI  -1
GLENCOE        CLOUDY    14   9  79 N13G24    30.21R WCI   0
FARIBAULT      LGT SNOW  12  10  92 N15G21    30.15R WCI  -4
OWATONNA       LGT SNOW  14  10  85 NE15G23   30.11R WCI  -1
WASECA         LGT SNOW  14  12  92 NE24      30.12R WCI  -5
ALBERT LEA     LGT SNOW  16  12  86 NE21G26   30.04R VSB 1   WCI  -2
$$
MNZ078>079-086>088-094>096-011500-
   Southeast Minnesota

CITY           SKY/WX    TMP DP  RH WIND       PRES   REMARKS
ROCHESTER      LGT SNOW  15  11  83 NE22G28   30.07R VSB 3/4 WCI  -3
RED WING       LGT SNOW  14   9  79 E12       30.20R WCI   0
STANTON        LGT SNOW  15  10  83 NE14G21   30.17R WCI   0
DODGE CENTER   LGT SNOW  14  12  92 NE18G26   30.07S WCI  -3
WINONA         LGT SNOW  18  12  79 NE8       30.18R WCI   7
AUSTIN         LGT SNOW  16  12  86 NE15G29   30.04R WCI   1
PRESTON          N/A     13  10  87 NE18G29   30.05S WCI  -4
$$
ABBREVIATIONS USED IN REMARKS
   TC - TEMPERATURES IN CELSIUS
  WCI - WIND CHILL INDEX
   HX - HEAT INDEX
  VSB - VISIBILITY
$$



USA.gov is the U.S. government's official web portal to all federal, state and local government web resources and services.